Location: Newark
(35.8833°N, 14.5000°E)
Time: 16:09:45
(UTC+00:00)

BEESAT - Pass Details

Date: 14 November 2019
Orbit: 700 x 709 km, 98.6° (Epoch: 10 December)

Event Time Altitude Azimuth Distance (km) Brightness Sun altitude
Rises 04:58:07 0° 212° (SSW) 3,079 ? -8.2°
Reaches altitude 10° 05:01:34 10° 239° (WSW) 2,165 ? -7.6°
Maximum altitude 05:03:49 13° 267° (W) 1,950 ? -7.1°
Drops below altitude 10° 05:06:05 10° 296° (WNW) 2,170 ? -6.7°
Enters shadow 05:08:02 - 314° (NW) 2,630 ? -6.3°
